Weather History for 71772 - December, 2012

Change the Weather History Date:

Wednesday, December 5, 2012

  Actual Average Record
Temperature  
Mean Temperature 42 °F -  
Max Temperature 45 °F - - ()
Min Temperature 40 °F - - ()
Degree Days  
Heating Degree Days 22    
Moisture  
Dew Point -    
Average Humidity    
Maximum Humidity    
Minimum Humidity    
Precipitation  
Precipitation 0.00 in - - ()
Sea Level Pressure  
Sea Level Pressure 30.01 in    
Wind  
Wind Speed 10 mph ()    
Max Wind Speed 16 mph    
Max Gust Speed -    
T = Trace of Precipitation, MM = Missing Value Source: Averaged Metar Reports

Daily Weather History Graph

Daily Weather History Graph

Search for Another Location

Airport or City:

Trip Planner

Search our weather history database for the weather conditions in past years. The results will help you decide how hot, cold, wet, or windy it might be!

Date:

Astronomy

Dec. 05, 2012 Rise Set
Actual Time 7:54 AM PST 4:17 PM PST
Civil Twilight 7:17 AM PST 4:54 PM PST
Nautical Twilight 6:37 AM PST 5:35 PM PST
Astronomical Twilight 5:58 AM PST 6:13 PM PST
Moon 11:41 PM PST (12/5) 11:55 AM PST (12/5)
Length of Visible Light 9h 37m
Length of Day
8h 23m
Waning Gibbous, 58% of the Moon is Illuminated
Dec 5
Waning Gibbous
Dec 6
Last Quarter
Dec 13
New
Dec 19
First Quarter
Dec 28
Full

Hourly Weather History & Observations

Time (PST) Temp. Windchill Dew Point Humidity Pressure Visibility Wind Dir Wind Speed Gust Speed Precip Events Conditions
12:00 AM 43.5 °F 37.1 °F - N/A% 29.70 in - WSW 12.7 mph - N/A   Unknown
1:00 AM 42.1 °F 37.1 °F - N/A% 29.74 in - WSW 8.1 mph - N/A   Unknown
2:00 AM 41.9 °F 37.5 °F - N/A% 29.79 in - SSW 6.9 mph - N/A   Unknown
3:00 AM 41.7 °F 39.8 °F - N/A% 29.83 in - South 3.5 mph - N/A   Unknown
4:00 AM 41 °F - - % 29.85 in - SSW 16.1 mph - -  
4:00 AM 40.6 °F 32.3 °F - N/A% 29.85 in - SSW 16.1 mph - N/A   Unknown
7:00 AM 42.1 °F 36.6 °F - N/A% 29.98 in - SW 9.2 mph - N/A   Unknown
8:00 AM 42.8 °F 36.6 °F - N/A% 30.01 in - SW 11.5 mph - N/A   Unknown
9:00 AM 42.1 °F 34.9 °F - N/A% 30.02 in - SSW 13.8 mph - N/A   Unknown
10:00 AM 44 °F - - % 30.07 in - SSW 9.2 mph - -  
10:00 AM 43.7 °F 38.6 °F - N/A% 30.07 in - SSW 9.2 mph - N/A   Unknown
11:00 AM 44.2 °F 38.4 °F - N/A% 30.08 in - South 11.5 mph - N/A   Unknown
12:00 PM 44.8 °F 39.9 °F - N/A% 30.08 in - SE 9.2 mph - N/A   Unknown
1:00 PM 44.8 °F 38.0 °F - N/A% 30.07 in - South 15.0 mph - N/A   Unknown
2:00 PM 44.2 °F 38.4 °F - N/A% 30.07 in - SSE 11.5 mph - N/A   Unknown
3:00 PM 44.2 °F 37.3 °F - N/A% 30.07 in - SSE 15.0 mph - N/A   Unknown
4:00 PM 44 °F - - % 30.09 in - South 16.1 mph - -  
4:00 PM 43.7 °F 36.3 °F - N/A% 30.09 in - South 16.1 mph - N/A   Unknown
5:00 PM 43.0 °F 37.7 °F - N/A% 30.09 in - South 9.2 mph - N/A   Unknown
6:00 PM 42.8 °F 37.5 °F - N/A% 30.09 in - South 9.2 mph - N/A   Unknown
7:00 PM 43.5 °F 39.4 °F - N/A% 30.09 in - South 6.9 mph - N/A   Unknown
8:00 PM 42.8 °F 36.6 °F - N/A% 30.08 in - South 11.5 mph - N/A   Unknown
9:00 PM 43.3 °F 38.6 °F - N/A% 30.09 in - SSE 8.1 mph - N/A   Unknown
10:00 PM 43 °F - - % 30.08 in - SE 9.2 mph - -  
10:00 PM 43.3 °F 38.1 °F - N/A% 30.08 in - SE 9.2 mph - N/A   Unknown
11:00 PM 43.2 °F 37.4 °F - N/A% 30.08 in - SSE 10.4 mph - N/A   Unknown